User: anonymous   Login
Location: Castelbiague
(43.0361°N, 0.9246°E)
Time: 09:33:45
(UTC+00:00)
Language:

GRAB - Orbit

View from above orbital plane
View from above orbital plane
View from above satellite
View from above satellite

Ground track
Ground track

The orbit data is extracted from the following two-line orbital elements,

1 00731U 64001E   22228.75039020 -.00000001  00000-0  38565-4 0  9997
2 00731  69.9067  34.9662 0012979  16.7764 343.3767 13.95913824982129
Epoch (UTC): 16 August 2022 18:00:33
Eccentricity: 0.0012979
inclination: 69.9067°
perigee height: 898 km
apogee height: 917 km
right ascension of ascending node: 34.9662°
argument of perigee: 16.7764°
revolutions per day: 13.95913824
mean anomaly at epoch: 343.3767°
orbit number at epoch: 98212

The dashed part of the orbit path shows where the satellite is in the earth's shadow,  

DLR